| time (UTC) | temp F | wind direction | speed knots | gust knots | rain 1hr in | rain 24hr in | rain mn in | humidity % | barometer mb |
| 20260506170002 | 60 | 74 | 1.7 | 10.4 | 0.00 | 0.00 | 0.00 | 79 | 1008.2 |
| 20260506163010 | 62 | 81 | 1.7 | 7.8 | 0.00 | 0.00 | 0.00 | 80 | 1008.2 |
| 20260506160002 | 63 | 90 | 0.9 | 8.7 | 0.00 | 0.00 | 0.00 | 78 | 1008.6 |
| 20260506153011 | 63 | 145 | 1.7 | 8.7 | 0.00 | 0.00 | 0.00 | 78 | 1008.8 |
| 20260506150002 | 65 | 127 | 1.7 | 13.0 | 0.00 | 0.00 | 0.00 | 75 | 1008.5 |
| 20260506143010 | 66 | 103 | 3.5 | 12.2 | 0.00 | 0.00 | 0.00 | 74 | 1008.7 |
| 20260506133011 | 64 | 62 | 1.7 | 12.2 | 0.00 | 0.00 | 0.00 | 76 | 1008.5 |
| 20260506130003 | 62 | 77 | 2.6 | 10.4 | 0.00 | 0.00 | 0.00 | 78 | 1008.8 |
| 20260506123011 | 61 | 109 | 1.7 | 8.7 | 0.00 | 0.00 | 0.00 | 82 | 1009.5 |
| 20260506120003 | 58 | 127 | 1.7 | 8.7 | 0.00 | 0.00 | 0.00 | 89 | 1009.4 |
| 20260506113011 | 56 | 63 | 1.7 | 7.0 | 0.00 | 0.00 | 0.00 | 90 | 1009.4 |
| 20260506110003 | 56 | 116 | 0.0 | 7.8 | 0.00 | 0.00 | 0.00 | 90 | 1009.7 |
| 20260506103011 | 55 | 92 | 0.9 | 7.8 | 0.00 | 0.00 | 0.00 | 90 | 1009.6 |
| 20260506100004 | 55 | 91 | 1.7 | 6.1 | 0.00 | 0.00 | 0.00 | 89 | 1009.4 |
| 20260506090003 | 55 | 114 | 1.7 | 7.8 | 0.00 | 0.00 | 0.00 | 84 | 1009.4 |
| 20260506083012 | 56 | 117 | 2.6 | 10.4 | 0.00 | 0.00 | 0.00 | 83 | 1009.5 |
| 20260506073012 | 56 | 119 | 1.7 | 12.2 | 0.00 | 0.00 | 0.00 | 81 | 1009.4 |
| 20260506043012 | 60 | 110 | 2.6 | 7.8 | 0.00 | 0.00 | 0.00 | 81 | 1009.8 |
| 20260506033012 | 61 | 119 | 2.6 | 13.9 | 0.00 | 0.00 | 0.00 | 77 | 1010.0 |
| 20260506023013 | 62 | 107 | 2.6 | 13.0 | 0.00 | 0.00 | 0.00 | 75 | 1009.8 |
| 20260506020005 | 62 | 91 | 2.6 | 13.9 | 0.00 | 0.00 | 0.00 | 75 | 1009.7 |
| 20260506013009 | 62 | 114 | 1.7 | 13.9 | 0.00 | 0.00 | 0.00 | 74 | 1009.4 |
| 20260506003009 | 63 | 130 | 0.9 | 7.8 | 0.00 | 0.00 | 0.00 | 68 | 1008.6 |
| 20260505233009 | 66 | 85 | 1.7 | 17.4 | 0.00 | 0.00 | 0.00 | 67 | 1008.0 |
| 20260505230001 | 67 | 73 | 1.7 | 17.4 | 0.00 | 0.00 | 0.00 | 65 | 1007.6 |
| 20260505223009 | 68 | 79 | 2.6 | 12.2 | 0.00 | 0.00 | 0.00 | 64 | 1007.5 |
| 20260505220001 | 69 | 25 | 4.3 | 13.0 | 0.00 | 0.00 | 0.00 | 62 | 1007.7 |
| 20260505213009 | 69 | 72 | 4.3 | 14.8 | 0.00 | 0.00 | 0.00 | 63 | 1007.5 |
| 20260505210001 | 70 | 94 | 4.3 | 13.0 | 0.00 | 0.00 | 0.00 | 60 | 1007.7 |
| 20260505203009 | 71 | 71 | 5.2 | 17.4 | 0.00 | 0.00 | 0.00 | 59 | 1007.5 |
| 20260505200002 | 72 | 72 | 4.3 | 17.4 | 0.00 | 0.00 | 0.00 | 59 | 1007.8 |
| 20260505193010 | 73 | 78 | 4.3 | 17.4 | 0.00 | 0.00 | 0.00 | 60 | 1007.9 |
| 20260505190001 | 73 | 94 | 6.1 | 13.0 | 0.00 | 0.00 | 0.00 | 59 | 1008.4 |
| 20260505183010 | 74 | 109 | 4.3 | 15.6 | 0.00 | 0.00 | 0.00 | 59 | 1008.4 |
| 20260505180002 | 73 | 93 | 2.6 | 17.4 | 0.00 | 0.00 | 0.00 | 60 | 1008.4 |